Location: Boleita
(10.4833°N, 66.8167°W)
Time: 06:05:20
(UTC+00:00)

CZ-4B R/B - Pass Details

Date: 03 August 2024
Orbit: 462 x 607 km, 97.9° (Epoch: 08 September)

Event Time Altitude Azimuth Distance (km) Brightness Sun altitude
Exits shadow 23:44:01 22° 106° (ESE) 1,172 3.8 -13.4°
Maximum altitude 23:45:09 25° 78° (ENE) 1,050 3.8 -13.6°
Drops below altitude 10° 23:48:12 10° 21° (NNE) 1,698 5.3 -14.3°
Sets 23:50:27 0° 8° (N) 2,555 6.4 -14.8°
